This is the latest recevied weather packets stored in our database for station/object DG6YGE-6. If no packets are shown the sender has not sent any weather packets the latest 1 day(s).
| Time | Temp. | Humidity | Pressure | Rain* | Wind** | Luminosity | Snow |
|---|---|---|---|---|---|---|---|
| 1778005152 | 11.67° C | 93% | 1006.5 hPa | 0 mm | 1.79 m/s, 213° | 5 W/m² | - |
| 1778004552 | 11.67° C | 92% | 1006.6 hPa | 0 mm | 1.34 m/s, 251° | 6 W/m² | - |
| 1778003952 | 11.67° C | 92% | 1006.6 hPa | 0 mm | 1.79 m/s, 329° | 8 W/m² | - |
| 1778003352 | 11.67° C | 92% | 1006.6 hPa | 0 mm | 0.89 m/s, 186° | 10 W/m² | - |
| 1778002752 | 11.67° C | 92% | 1006.8 hPa | 0 mm | 1.34 m/s, 261° | 12 W/m² | - |
| 1778002152 | 11.67° C | 92% | 1006.7 hPa | 0 mm | 0.89 m/s, 155° | 13 W/m² | - |
| 1778001552 | 11.67° C | 92% | 1006.7 hPa | 0 mm | 1.79 m/s, 96° | 17 W/m² | - |
| 1778000952 | 11.67° C | 92% | 1006.7 hPa | 0 mm | 1.34 m/s, 285° | 20 W/m² | - |
| 1778000352 | 11.67° C | 92% | 1006.8 hPa | 0 mm | 0.89 m/s, 223° | 21 W/m² | - |
| 1777999752 | 11.67° C | 91% | 1006.9 hPa | 0 mm | 0.89 m/s, 223° | 23 W/m² | - |
| 1777999152 | 11.67° C | 91% | 1007.1 hPa | 0 mm | 0.89 m/s, 333° | 28 W/m² | - |
| 1777998552 | 11.67° C | 91% | 1007.1 hPa | 0 mm | 0.89 m/s, 85° | 29 W/m² | - |
| 1777997951 | 11.67° C | 91% | 1007.2 hPa | 0 mm | 0.89 m/s, 176° | 31 W/m² | - |
| 1777997352 | 11.67° C | 91% | 1007.3 hPa | 0 mm | 1.34 m/s, 336° | 33 W/m² | - |
| 1777996752 | 11.67° C | 91% | 1007.2 hPa | 0 mm | 1.34 m/s, 280° | 37 W/m² | - |
| 1777996152 | 11.67° C | 91% | 1007.3 hPa | 0 mm | 1.79 m/s, 360° | 41 W/m² | - |
| 1777995552 | 11.67° C | 91% | 1007.3 hPa | 0 mm | 0.89 m/s, 201° | 45 W/m² | - |
| 1777994952 | 11.67° C | 91% | 1007.4 hPa | 0 mm | 1.34 m/s, 215° | 55 W/m² | - |
| 1777994352 | 11.67° C | 91% | 1007.4 hPa | 0 mm | 0.89 m/s, 177° | 69 W/m² | - |
| 1777993752 | 11.67° C | 91% | 1007.5 hPa | 0 mm | 1.34 m/s, 157° | 94 W/m² | - |
| 1777993152 | 11.67° C | 91% | 1007.6 hPa | 0 mm | 1.34 m/s, 317° | 95 W/m² | - |
| 1777992552 | 11.67° C | 91% | 1007.7 hPa | 0 mm | 0.89 m/s, 212° | 96 W/m² | - |
| 1777991952 | 11.67° C | 91% | 1007.8 hPa | 0 mm | 0.89 m/s, 169° | 104 W/m² | - |
| 1777991352 | 11.67° C | 91% | 1008 hPa | 0 mm | 1.34 m/s, 196° | 129 W/m² | - |
| 1777990752 | 11.11° C | 90% | 1008 hPa | 0 mm | 1.34 m/s, 167° | 140 W/m² | - |
* Rain latest hour (hover to see other rain measurements)
** Current wind speed in m/s (hover to see current wind gust speed)